Weather in Yurkovka

Russia / Republic of Dagestan     44°10′35″N   46°40′47″E
temp.,
°C
wind,
m/s
gust,
m/s
humid.,
%
clouds,
%
prec.,
mm/h
press.,
hPa
HPBL,
m
26 january, tue
tue2600:00+6se6148673 0.0 1019696
03:00+6se7148672 0.0 1017683
06:00+6se61080100 0.0 1018680
09:00+7se6972100 0.0 1020763
12:00+9se4565100 0.0 1021820
15:00+9se3363100 0.0 1022899
18:00+8ese5671100 0.0 1023396
21:00+7se5773100 0.0 1022687
27 january, wed
wed2700:00+5ese5108462 0.0 1022335
03:00+4ese4108931 0.0 1020271
06:00+4ese613900 0.0 1019404
09:00+6ese813771 0.0 1019765
12:00+9se10146045 0.0 1016847
15:00+9ese11166836 0.0 1014879
18:00+7ese11167690 0.0 1013921
21:00+7ese10177895 0.0 1010861
28 january, thu
thu2800:00+7se101578100 0.0 1009821
03:00+7se71380100 0.0 1007662
06:00+5ese4992100 0.0 1007261
09:00+5sse2488100 0.0 1006177
12:00+9sse226377 0.0 1005417
15:00+11ssw115354 0.0 1003497
18:00+8w3470100 0.0 100498
21:00+6w7128168 0.0 1005494
29 january, fri
fri2900:00+7wnw91271100 0.0 1005938
03:00+5w71278100 0.0 1006573
06:00+4w6128631 0.0 1008445
09:00+7wnw6118229 0.0 1010553
12:00+10nw45648 0.0 1010896
15:00+9n236754 0.1 1011703
18:00+8e127599 0.4 1012102
21:00+7se5778100 0.5 1012396
30 january, sat
sat3000:00+5ese388769 0.0 1011229
03:00+4e479274 0.0 1010191
06:00+3e369467 0.0 1009152
09:00+5ese478534 0.0 1010334
12:00+8ese226942 0.0 1009627
15:00+9e346328 0.0 1009665
18:00+5e348253 0.0 1011101
21:00+4ese358548 0.0 101198